Regional Weather Roundup
Issued by NWS

Home | Current Version | Previous Version | Graphics & Text | Print | Product List | Glossary On
Versions: 1 2 3 4 5 6 7 8 9 10 11 12 13 14 15 16 17 18 19 20 21 22 23 24 25 26 27 28 29 30 31 32 33 34 35 36 37 38 39 40 41 42 43 44 45 46 47 48 49 50
000
ASUS45 KCYS 291110
RWRWY

WYOMING REGIONAL WEATHER ROUNDUP
NATIONAL WEATHER SERVICE CHEYENNE WY
500 AM MDT FRI AUG 29 2014

NOTE:  "FAIR" INDICATES FEW OR NO CLOUDS BELOW 12,000 FEET
WITH NO SIGNIFICANT WEATHER AND/OR OBSTRUCTIONS TO VISIBILITY.

WYZ001-291200-
YELLOWSTONE NATIONAL PARK

CITY           SKY/WX    TMP DP  RH WIND       PRES   REMARKS
LK YELLOWSTONE   N/A     44  43  96 CALM      30.30S
W YELLOWSTONE  NOT AVBL

$$
WYZ002>013-054>058-071-098>099-291200-
NORTHERN WYOMING

CITY           SKY/WX    TMP DP  RH WIND       PRES   REMARKS
JACKSON        PTCLDY    46  45  93 CALM      30.21S
CODY           CLOUDY    61  46  59 SW3       30.11F
GREYBULL       CLOUDY    61  54  77 W10       30.05S
WORLAND        CLOUDY    59  52  77 W3        30.08R
SHERIDAN       CLOUDY    60  53  77 CALM      30.05S
BUFFALO        LGT RAIN  61  47  59 N16G28    30.11R
GILLETTE       LGT RAIN  60  52  74 NW16G26   30.03R
HULETT         FAIR      63  50  63 MISG      30.03
NEWCASTLE      FAIR      54  46  76 MISG      29.98

$$
WYZ014>020-022>026-101>103-291200-
CENTRAL WYOMING

CITY           SKY/WX    TMP DP  RH WIND       PRES   REMARKS
BIG PINEY      CLEAR     44  40  85 CALM      30.23S
PINEDALE       SUNNY     39  39 100 NW6       30.25R WCI  35
DUBOIS         FAIR      45  37  76 NW8       30.23R
LANDER         MOCLDY    60  43  53 SW7       30.14R
RIVERTON       PTCLDY    60  43  53 NE5       30.14R
CASPER         PTCLDY    51  43  74 SW8       30.09R
DOUGLAS        PTCLDY    50  48  93 CALM      30.04S

$$
WYZ021-027>030-104>119-291200-
SOUTHERN WYOMING

CITY           SKY/WX    TMP DP  RH WIND       PRES   REMARKS
EVANSTON       CLEAR     50  40  68 S8        30.26S
KEMMERER       SUNNY     48  41  76 NW5       30.27S
FORT BRIDGER   FAIR      56  39  52 W10       30.28R
ROCK SPRINGS   PTCLDY    53  42  66 W7        30.23R
DIXON          FAIR      49  46  89 SE6       30.25S
RAWLINS        PTCLDY    56  44  64 W12       30.19S
SARATOGA       PTSUNNY   50  43  76 SE6       30.23R
LARAMIE        PTCLDY    44  41  89 CALM      30.20S
CHEYENNE       PTCLDY    54  41  61 NW8       30.11S
TORRINGTON     CLEAR     50  48  93 CALM      29.99S
PINE BLUFFS    FAIR      46  45  93 CALM      30.06R

$$


USA.gov is the U.S. government's official web portal to all federal, state and local government web resources and services.